Wind_Speed
15 18 13 9 7 10 16 8 8 7 6 6 7 3 6 5 8 5 11 8 8 11 9 11 8 8 9 9 5 5 7 10 9 9 9 10 11 9 8 12 14 12 12 11 10 9 7 5 3
20 20 8 9 4 11 12 10 11 9 10 9 11 9 9 9 8 9 15 15 13 13 18 14 17 18 8 7 7 7 7 9 11 11 9 11 12 11 10 13 13 16 17 12 12 11 9 7 4
26 20 3 8 18 14 11 13 11 10 13 13 11 9 11 10 8 11 15 18 20 17 11 9 14 19 14 13 10 9 9 10 12 12 11 11 13 12 13 18 14 22 16 16 13 13 12 8 5
13 5 15 29 27 18 17 12 12 11 9 9 11 6 8 10 11 14 16 20 18 22 22 22 19 16 8 20 14 15 13 12 12 13 13 13 12 13 15 14 16 15 12 21 15 15 15 10 6
11 11 22 27 26 22 19 14 10 8 9 7 3 6 9 10 12 15 18 20 23 25 26 30 23 24 27 11 18 13 17 15 13 15 16 16 15 13 10 13 7 9 15 14 21 24 16 13 8
8 14 19 23 22 18 17 13 12 12 10 8 14 12 11 13 16 19 21 24 25 25 27 29 31 31 32 27 13 15 16 19 18 18 18 18 17 15 16 5 7 11 11 12 12 6 18 12 7
16 16 20 20 18 13 11 14 9 8 4 5 6 8 11 15 18 20 22 26 30 30 30 29 31 32 34 31 31 29 19 17 20 21 20 20 19 17 15 17 13 7 9 9 9 12 6 12 6
15 17 17 14 13 14 7 6 7 3 3 1 4 6 12 17 16 17 17 21 29 33 34 36 33 34 35 34 24 32 31 25 19 24 23 21 21 17 17 15 14 12 14 14 8 16 7 10 11
12 15 15 10 8 12 6 3 2 2 3 5 5 5 9 15 16 17 19 20 25 31 33 36 39 36 36 38 32 29 30 31 33 24 27 24 25 20 18 19 17 18 19 9 12 13 12 9 9
12 16 14 12 14 12 9 4 6 6 10 13 18 19 18 18 20 21 20 22 28 34 38 37 39 39 37 38 40 34 33 33 35 33 29 33 30 25 22 21 17 14 19 10 12 16 13 11 6
13 21 16 16 13 9 6 4 7 4 5 12 14 18 19 19 18 20 23 22 28 32 41 42 41 39 39 36 39 41 36 36 33 32 34 38 26 29 25 24 20 20 23 9 13 16 14 11 11
15 16 11 10 9 7 4 1 3 6 8 14 18 19 19 18 19 19 24 26 28 31 37 45 46 43 36 38 36 39 40 39 33 33 30 31 35 29 30 26 22 23 22 21 15 17 15 15 13
13 12 9 8 6 4 3 3 5 15 19 19 21 24 23 21 19 21 24 24 30 32 33 42 45 47 42 35 39 34 37 39 34 35 29 30 34 33 31 31 27 22 25 27 21 19 18 17 16
10 12 13 12 11 14 6 7 9 17 19 23 27 23 21 23 22 23 16 29 33 24 20 33 41 46 51 41 39 35 32 35 32 35 34 27 29 30 35 33 36 30 24 27 29 24 21 20 19
14 12 12 8 13 13 6 4 3 18 22 24 22 18 15 20 19 17 24 26 28 22 20 30 36 34 45 50 42 36 32 31 26 33 35 29 29 29 36 36 29 34 28 32 29 33 24 21 20
7 2 1 7 17 11 8 5 14 20 23 16 12 14 18 21 23 25 28 29 27 25 25 30 34 40 45 51 47 46 25 25 24 27 33 32 27 30 28 37 36 40 38 32 37 32 30 26 22
3 8 7 4 14 7 5 6 13 23 22 16 13 16 20 23 23 24 27 30 32 32 33 34 33 34 44 44 42 42 19 23 20 22 25 34 25 27 33 32 33 28 37 31 39 37 36 33 25
10 8 7 6 6 9 5 6 8 15 17 13 16 18 21 22 23 25 27 29 32 35 35 34 32 30 32 33 36 37 26 18 23 16 17 29 29 24 28 31 36 35 29 39 35 32 31 30 37
9 7 6 5 9 10 4 7 8 7 13 15 17 20 23 25 26 24 28 28 25 30 31 30 31 33 37 19 28 36 30 19 20 15 13 19 32 24 25 29 35 32 31 34 28 26 31 39 27
9 10 7 5 11 11 10 9 6 6 19 14 16 19 22 23 23 27 29 29 25 22 27 28 30 35 24 26 31 35 19 13 10 8 11 9 27 27 25 26 30 32 37 27 33 32 29 34 32
6 14 6 4 9 9 15 3 5 7 16 14 16 23 23 22 25 25 26 26 23 20 22 25 28 33 21 18 26 31 21 16 10 14 11 10 16 31 23 24 27 33 30 24 33 33 26 26 35
2 15 5 6 9 7 9 10 3 5 11 17 18 22 24 23 23 27 23 26 21 23 21 23 27 32 24 27 30 20 18 15 12 7 9 10 7 25 26 24 23 27 29 28 30 34 38 37 27
7 9 9 9 7 10 1 6 4 12 17 17 19 21 22 23 27 23 29 26 20 17 18 25 30 34 17 20 29 24 16 15 13 9 10 14 16 24 27 25 23 25 27 33 37 30 27 25 29
20 20 19 10 7 8 3 6 5 14 18 19 19 20 23 25 22 32 28 26 20 22 24 21 25 23 17 21 22 18 13 15 10 6 9 15 18 20 22 22 23 23 26 28 32 25 32 27 30
15 19 5 7 6 2 5 3 7 14 15 16 21 21 24 24 26 32 33 30 21 23 23 21 20 17 13 12 17 14 14 11 8 9 9 8 11 12 16 21 24 23 25 27 28 23 29 34 31
9 11 5 4 6 11 9 4 6 14 12 19 19 21 26 25 28 30 33 32 27 22 22 22 22 17 13 14 15 13 11 11 10 8 6 3 6 11 15 20 23 24 25 25 30 25 22 30 36
6 5 5 5 7 7 4 2 7 7 17 19 23 27 29 28 28 29 31 33 31 23 21 21 21 20 17 17 15 12 12 10 8 5 5 3 6 9 13 17 21 21 22 24 28 29 18 25 31
10 7 2 2 5 5 7 10 2 20 27 25 24 27 32 30 27 27 29 31 32 27 21 21 20 20 18 19 15 14 9 7 6 7 6 4 2 7 10 13 17 18 20 24 21 36 23 24 33
8 4 5 5 4 3 5 5 14 20 26 27 29 31 32 30 28 27 27 28 29 30 27 23 21 20 18 18 15 12 11 7 6 6 5 4 4 7 12 10 13 16 18 17 21 29 31 23 33
9 6 4 3 2 8 9 11 8 21 24 29 32 29 30 29 27 26 26 30 31 29 27 23 22 20 19 17 15 11 11 10 5 4 5 7 2 5 12 12 11 13 15 13 15 19 31 18 16
Wind_Direction
96 96 84 47 222 86 59 56 64 49 18 3 323 347 1 7 342 295 312 318 277 262 261 257 256 230 229 240 242 248 249 243 249 254 249 249 240 234 229 226 218 209 201 203 190 198 202 213 222
71 47 7 333 65 104 67 57 67 62 62 53 44 45 26 2 351 328 318 309 313 304 282 314 277 288 285 238 249 275 271 255 247 241 248 256 250 237 233 232 233 224 224 218 205 202 207 208 210
62 32 286 77 70 77 103 69 73 71 59 52 44 46 27 11 355 334 331 325 304 313 293 257 267 254 244 263 252 261 267 255 251 244 240 246 252 247 243 238 247 230 224 224 223 207 201 195 195
57 45 70 92 88 91 80 96 83 76 69 43 31 26 17 10 356 346 333 327 319 315 320 302 307 289 206 246 251 249 252 249 246 248 245 249 247 248 245 248 260 269 248 223 222 221 207 186 174
86 83 99 96 92 90 91 102 98 88 96 116 286 357 6 3 347 338 330 323 320 318 313 316 303 294 304 323 242 252 249 244 240 243 245 247 248 248 258 261 291 235 220 207 220 220 207 177 170
116 118 102 104 102 97 91 83 83 85 91 68 15 349 358 1 349 341 337 329 325 318 311 307 306 308 290 285 270 248 246 247 243 243 238 243 244 244 228 192 252 250 259 258 192 165 217 196 164
134 105 111 115 111 100 89 114 78 115 66 60 77 299 328 342 338 336 336 328 323 321 318 307 299 293 286 297 282 276 278 243 249 245 241 237 238 239 237 249 243 253 232 204 238 233 264 195 243
98 112 118 116 117 104 101 113 130 89 62 322 117 246 262 320 328 325 326 320 317 317 319 315 307 296 292 288 282 273 268 271 260 241 239 240 239 234 237 241 242 225 237 229 217 266 231 210 232
107 105 96 109 121 125 95 95 76 1 356 4 8 344 319 325 329 331 332 322 317 317 317 316 312 306 296 287 285 276 266 260 264 255 240 237 238 240 240 240 241 232 234 237 229 218 218 232 220
116 107 95 102 118 115 134 103 67 29 27 3 345 347 346 343 337 334 332 323 319 320 317 319 313 307 299 291 278 278 272 263 260 254 247 242 238 240 239 240 236 243 234 210 220 226 225 229 210
128 110 111 104 109 126 94 70 101 44 308 328 339 344 342 344 336 332 324 323 318 322 318 317 314 310 301 293 283 275 271 267 264 260 257 247 249 232 235 233 238 235 242 218 226 223 232 232 206
105 113 115 116 115 125 127 124 73 34 335 342 351 348 344 342 334 331 320 321 318 322 317 315 312 308 303 293 286 279 270 266 265 257 253 254 244 242 229 232 238 246 233 227 222 220 224 230 231
102 116 112 97 91 68 81 19 344 6 354 351 352 350 346 335 329 326 323 316 319 322 321 313 310 308 304 294 286 278 272 262 261 260 248 246 247 245 239 236 239 241 237 233 240 238 223 223 227
128 103 79 57 45 39 8 24 28 341 349 354 352 349 338 323 325 327 315 307 319 322 320 304 306 311 308 304 292 288 274 265 256 256 249 245 242 243 235 236 236 234 242 225 227 241 235 221 214
81 65 66 49 20 27 42 318 11 338 353 355 350 336 313 316 316 309 306 309 315 320 301 298 307 311 311 315 312 306 286 269 260 253 249 239 237 235 235 236 240 234 235 228 215 229 233 220 218
104 63 330 348 0 356 67 52 300 343 355 345 324 320 318 317 312 314 313 310 308 306 296 299 304 304 303 307 314 317 312 287 264 256 250 234 237 231 233 234 236 235 230 236 217 224 219 219 217
71 25 24 321 340 3 14 346 311 320 331 334 322 321 321 321 318 315 311 306 300 291 287 295 292 290 292 298 306 313 310 306 273 255 253 236 232 231 225 227 224 227 226 231 216 220 211 211 217
21 17 17 23 307 344 296 306 297 311 316 317 322 323 314 315 313 309 312 303 297 295 293 291 288 286 285 291 300 310 297 296 287 252 257 238 227 233 227 224 222 219 218 225 218 221 217 211 228
33 14 11 341 336 14 343 314 312 300 313 314 307 305 322 321 316 308 301 295 297 295 299 296 280 276 277 299 311 317 303 288 297 256 268 250 231 229 228 222 222 211 219 213 222 241 223 221 224
34 21 343 287 340 340 320 311 294 265 319 322 327 341 321 317 312 306 310 307 306 293 297 295 295 284 284 288 317 312 308 298 314 294 264 281 244 225 230 223 222 212 215 202 217 236 232 228 216
318 346 337 300 303 299 334 287 285 310 347 345 335 317 317 320 312 312 312 312 312 303 290 292 287 283 294 312 306 313 297 283 303 270 253 277 260 233 230 226 219 222 212 210 217 217 228 220 218
5 337 14 332 337 347 333 332 118 342 345 332 325 309 323 321 316 319 316 317 315 314 309 289 288 293 288 319 304 312 310 304 289 262 231 251 240 240 223 228 222 217 220 218 218 221 225 225 214
321 352 344 330 315 311 359 339 23 358 341 329 319 322 327 324 324 320 323 329 334 318 307 297 296 313 321 304 300 309 290 286 271 247 232 227 232 235 218 225 224 216 217 220 223 215 229 228 208
1 327 286 283 283 249 322 19 283 350 328 323 327 332 325 324 325 330 331 335 325 331 329 327 319 323 322 304 308 301 293 291 298 268 277 228 229 241 236 231 226 219 216 218 220 216 225 214 208
351 4 44 227 213 10 338 330 298 308 336 340 338 327 330 328 322 336 336 340 329 336 340 341 328 343 344 330 314 312 306 306 285 290 284 226 225 225 231 231 227 222 220 216 215 211 199 204 220
10 28 32 301 342 311 294 240 303 340 9 323 336 328 334 336 336 337 338 342 345 334 340 347 350 350 339 321 322 311 299 301 303 312 293 258 189 209 220 229 227 223 218 220 214 210 204 217 215
345 4 332 286 289 271 259 344 338 13 329 336 340 339 340 344 342 339 342 344 350 341 336 345 350 357 348 340 338 333 327 332 338 0 314 264 200 202 208 223 228 227 220 223 222 212 214 208 210
13 9 327 307 316 317 318 314 266 321 340 342 348 335 341 343 345 347 346 348 350 354 343 344 347 349 348 352 355 356 356 22 9 351 338 308 235 185 191 212 224 229 221 221 228 226 218 210 207
331 327 337 300 243 305 314 296 304 330 341 342 340 338 341 343 349 350 351 351 354 356 352 345 346 344 351 351 354 1 2 10 12 354 348 314 253 179 163 191 210 223 220 227 226 231 220 206 211
309 296 281 266 20 275 271 274 294 337 338 331 336 336 341 345 349 353 353 356 357 357 353 344 345 346 350 354 4 1 9 6 359 10 28 313 292 184 147 163 187 208 213 224 227 227 219 199 164
Height
3137 3139 3141 3142 3151 3149 3153 3156 3154 3154 3155 3155 3156 3156 3158 3159 3161 3165 3162 3161 3160 3160 3158 3157 3156 3156 3158 3160 3159 3159 3161 3161 3162 3161 3161 3161 3160 3161 3163 3164 3164 3165 3166 3163 3166 3170 3171 3172 3172
3141 3139 3143 3146 3145 3149 3157 3158 3154 3157 3158 3158 3159 3160 3161 3162 3162 3162 3162 3161 3159 3157 3157 3157 3153 3155 3153 3157 3158 3158 3159 3160 3160 3159 3159 3159 3159 3160 3162 3162 3163 3164 3163 3161 3166 3169 3171 3171 3172
3141 3143 3147 3146 3151 3155 3159 3159 3159 3160 3159 3159 3160 3161 3162 3162 3163 3162 3161 3159 3158 3158 3159 3157 3156 3155 3154 3155 3156 3157 3157 3158 3158 3157 3157 3156 3157 3158 3160 3159 3160 3161 3162 3163 3166 3167 3169 3170 3171
3143 3149 3149 3149 3157 3162 3161 3164 3164 3166 3165 3163 3160 3162 3163 3162 3162 3161 3159 3157 3156 3157 3156 3155 3153 3154 3151 3154 3154 3154 3156 3155 3155 3155 3155 3155 3155 3156 3158 3156 3157 3158 3159 3160 3164 3166 3167 3169 3170
3152 3150 3154 3156 3160 3163 3165 3167 3167 3166 3165 3165 3163 3162 3162 3161 3161 3159 3157 3156 3155 3154 3153 3150 3152 3151 3149 3144 3152 3152 3153 3152 3151 3152 3152 3152 3153 3154 3156 3154 3153 3155 3157 3159 3161 3162 3164 3167 3169
3151 3153 3156 3159 3162 3165 3166 3168 3167 3166 3167 3168 3164 3160 3161 3160 3158 3156 3154 3151 3151 3151 3151 3151 3149 3146 3148 3148 3148 3149 3149 3148 3147 3148 3149 3149 3150 3152 3154 3147 3152 3154 3156 3156 3158 3158 3161 3165 3167
3152 3153 3159 3162 3163 3165 3165 3166 3170 3167 3165 3165 3167 3163 3161 3159 3157 3155 3153 3149 3146 3145 3144 3145 3146 3146 3145 3143 3145 3143 3144 3143 3144 3145 3145 3146 3147 3149 3150 3150 3151 3153 3154 3154 3157 3158 3159 3162 3165
3154 3158 3161 3164 3165 3165 3166 3164 3167 3166 3165 3164 3164 3164 3160 3160 3158 3156 3154 3150 3145 3141 3139 3136 3138 3138 3137 3137 3139 3141 3140 3138 3139 3141 3142 3143 3144 3145 3146 3148 3150 3151 3152 3153 3155 3157 3157 3162 3163
3158 3159 3162 3165 3165 3166 3167 3165 3166 3165 3164 3163 3164 3163 3162 3159 3156 3153 3151 3148 3144 3139 3137 3133 3130 3131 3131 3129 3131 3134 3132 3134 3135 3135 3137 3138 3140 3142 3143 3145 3146 3147 3150 3149 3153 3156 3158 3160 3160
3157 3160 3164 3165 3166 3169 3169 3167 3167 3169 3166 3163 3161 3160 3159 3156 3153 3151 3148 3144 3139 3134 3130 3129 3125 3124 3124 3123 3122 3124 3125 3126 3126 3129 3130 3132 3135 3137 3139 3141 3143 3144 3146 3146 3151 3154 3156 3157 3159
3157 3160 3164 3166 3168 3167 3167 3167 3168 3168 3167 3164 3162 3159 3156 3153 3151 3148 3144 3141 3136 3131 3124 3122 3120 3118 3116 3116 3115 3116 3117 3116 3117 3120 3122 3126 3127 3131 3134 3137 3139 3140 3142 3142 3147 3151 3153 3155 3158
3157 3162 3164 3165 3167 3168 3166 3165 3165 3165 3166 3162 3159 3156 3153 3151 3148 3145 3141 3137 3132 3129 3121 3115 3112 3110 3110 3108 3108 3108 3108 3108 3110 3111 3115 3118 3123 3123 3127 3131 3134 3136 3139 3141 3143 3147 3150 3153 3155
3162 3163 3165 3166 3166 3166 3165 3164 3163 3162 3160 3159 3156 3152 3149 3147 3144 3141 3137 3132 3128 3123 3118 3110 3105 3100 3101 3102 3098 3100 3098 3100 3103 3100 3107 3110 3113 3116 3119 3124 3129 3131 3133 3137 3140 3144 3146 3149 3152
3164 3165 3165 3165 3165 3165 3164 3163 3162 3161 3160 3156 3152 3150 3148 3144 3141 3137 3135 3128 3123 3120 3116 3107 3100 3095 3091 3093 3091 3090 3090 3089 3094 3093 3096 3101 3105 3109 3113 3116 3122 3126 3129 3131 3136 3140 3143 3145 3148
3165 3164 3165 3166 3166 3165 3164 3164 3164 3161 3159 3155 3152 3150 3148 3144 3140 3136 3131 3125 3120 3116 3113 3104 3099 3093 3086 3083 3083 3081 3080 3080 3084 3084 3086 3092 3096 3100 3105 3109 3113 3119 3124 3127 3130 3136 3138 3142 3144
3166 3168 3169 3167 3167 3166 3166 3167 3163 3160 3157 3155 3154 3152 3149 3144 3140 3136 3131 3126 3120 3115 3109 3102 3096 3090 3083 3080 3078 3076 3073 3072 3075 3075 3078 3083 3087 3091 3096 3102 3107 3111 3116 3119 3123 3128 3133 3135 3138
3171 3170 3171 3167 3167 3166 3167 3168 3161 3159 3158 3155 3153 3151 3147 3143 3141 3137 3131 3126 3119 3112 3104 3099 3093 3086 3079 3076 3074 3072 3070 3067 3067 3068 3069 3074 3080 3084 3089 3094 3100 3104 3108 3112 3115 3122 3127 3132 3131
3173 3172 3171 3170 3168 3165 3167 3166 3165 3159 3156 3154 3152 3150 3147 3143 3138 3133 3127 3121 3114 3106 3100 3094 3089 3082 3074 3071 3068 3067 3066 3063 3061 3062 3062 3066 3072 3077 3081 3087 3094 3097 3101 3105 3110 3117 3121 3127 3129
3173 3172 3171 3170 3167 3165 3166 3165 3165 3163 3158 3156 3152 3148 3145 3140 3134 3128 3121 3114 3108 3103 3096 3090 3083 3074 3067 3067 3063 3060 3060 3058 3057 3057 3058 3060 3063 3070 3073 3078 3085 3090 3096 3099 3104 3109 3114 3119 3124
3172 3171 3170 3168 3165 3164 3164 3162 3162 3160 3157 3152 3148 3147 3141 3135 3129 3121 3114 3107 3101 3097 3092 3085 3075 3066 3063 3059 3059 3056 3054 3053 3053 3053 3053 3055 3056 3063 3067 3071 3076 3083 3090 3090 3097 3104 3108 3113 3118
3171 3170 3167 3168 3165 3165 3161 3159 3160 3157 3156 3153 3151 3145 3137 3130 3122 3115 3108 3101 3095 3091 3086 3080 3071 3062 3058 3055 3053 3051 3050 3050 3048 3047 3050 3049 3051 3053 3060 3065 3070 3075 3081 3085 3092 3099 3104 3107 3112
3173 3168 3166 3166 3166 3165 3163 3161 3159 3159 3157 3155 3148 3139 3132 3125 3119 3111 3104 3097 3091 3085 3080 3072 3066 3060 3055 3053 3049 3047 3046 3044 3043 3043 3042 3044 3044 3046 3054 3059 3064 3069 3075 3079 3087 3093 3097 3100 3107
3172 3168 3166 3165 3165 3164 3162 3159 3158 3158 3155 3151 3143 3135 3129 3123 3115 3108 3100 3092 3087 3083 3076 3067 3061 3056 3049 3049 3045 3043 3042 3040 3038 3038 3038 3040 3040 3042 3050 3054 3059 3065 3070 3076 3082 3087 3092 3097 3102
3168 3165 3163 3164 3164 3162 3161 3161 3159 3155 3152 3145 3139 3132 3128 3120 3113 3105 3096 3089 3083 3077 3071 3064 3057 3052 3048 3045 3043 3040 3038 3036 3034 3034 3034 3034 3036 3040 3047 3051 3055 3060 3064 3069 3077 3083 3088 3094 3097
3171 3164 3159 3161 3161 3159 3158 3159 3157 3154 3148 3142 3137 3132 3125 3118 3110 3101 3093 3086 3080 3074 3069 3062 3055 3050 3046 3043 3040 3038 3035 3033 3032 3030 3030 3030 3033 3036 3042 3046 3050 3055 3060 3065 3072 3078 3083 3089 3093
3172 3171 3172 3170 3162 3160 3158 3156 3155 3150 3146 3143 3136 3130 3123 3115 3108 3100 3092 3084 3078 3072 3067 3061 3055 3049 3045 3041 3038 3035 3033 3031 3029 3028 3029 3028 3030 3033 3037 3042 3047 3052 3058 3062 3068 3075 3078 3086 3089
3173 3173 3172 3171 3165 3163 3154 3153 3152 3150 3147 3140 3134 3128 3120 3113 3106 3099 3091 3082 3076 3070 3065 3060 3055 3049 3044 3040 3036 3033 3031 3029 3028 3028 3028 3027 3027 3030 3034 3039 3044 3050 3054 3059 3064 3070 3075 3082 3085
3173 3173 3172 3171 3167 3161 3153 3151 3150 3147 3142 3137 3132 3125 3119 3112 3106 3098 3090 3083 3076 3068 3063 3059 3054 3049 3045 3041 3037 3034 3032 3030 3029 3028 3028 3027 3026 3027 3032 3037 3042 3046 3051 3056 3061 3067 3073 3078 3082
3172 3172 3171 3170 3169 3166 3159 3151 3147 3145 3139 3135 3130 3124 3118 3111 3105 3098 3091 3084 3076 3069 3063 3058 3053 3049 3044 3040 3037 3034 3033 3031 3030 3029 3028 3026 3025 3025 3029 3035 3040 3044 3048 3053 3059 3065 3070 3075 3079
3171 3170 3170 3170 3167 3165 3162 3151 3146 3141 3137 3133 3129 3124 3117 3110 3104 3098 3091 3084 3077 3070 3064 3058 3053 3049 3045 3041 3038 3036 3033 3032 3030 3028 3028 3026 3025 3025 3026 3032 3038 3044 3048 3052 3056 3061 3067 3072 3076